GW3984 Weather Reports


time (UTC)temp
C
wind
direction
speed
KPH
gust
KPH
rain 1hr
cm
rain 24hr
cm
rain mn
cm
humidity
%
barometer
mb
20260904000032 33 134 3.2 14.5 0.00 0.00 0.00 49 1011.2
20260903235918 33 137 1.6 12.9 0.00 0.00 0.00 50 1010.4
20260903234937 33 150 3.2 12.9 0.00 0.00 0.00 49 1010.3
20260903234527 33 119 3.2 14.5 0.00 0.00 0.00 48 1011.2
20260903233941 33 181 1.6 9.7 0.00 0.00 0.00 49 1010.4
20260903233024 33 135 1.6 14.5 0.00 0.00 0.00 48 1011.2
20260903232913 33 120 1.6 9.7 0.00 0.00 0.00 48 1010.3
20260903231844 34 117 4.8 14.5 0.00 0.00 0.00 46 1010.2
20260903231518 34 128 6.4 16.1 0.00 0.00 0.00 47 1011.1
20260903230908 34 184 4.8 14.5 0.00 0.00 0.00 47 1010.2
20260903230032 35 136 4.8 16.1 0.00 0.00 0.00 45 1011.0
20260903225853 35 129 3.2 12.9 0.00 0.00 0.00 46 1010.1
20260903224900 35 153 3.2 12.9 0.00 0.00 0.00 46 1010.0
20260903224513 35 144 4.8 17.7 0.00 0.00 0.00 45 1010.7
20260903223901 36 322 1.6 12.9 0.00 0.00 0.00 44 1009.9
20260903223032 36 78 1.6 14.5 0.00 0.00 0.00 41 1010.7
20260903222901 36 153 3.2 12.9 0.00 0.00 0.00 41 1009.9
20260903221534 35 144 1.6 12.9 0.00 0.00 0.00 42 1010.7
20260903220724 35 102 1.6 9.7 0.00 0.00 0.00 43 1009.9
20260903220034 36 119 3.2 12.9 0.00 0.00 0.00 43 1010.8
20260903215711 36 144 1.6 9.7 0.00 0.00 0.00 43 1009.9
20260903214641 36 137 0.0 8.0 0.00 0.00 0.00 44 1010.0
20260903214539 36 155 1.6 11.3 0.00 0.00 0.00 43 1011.0
20260903213635 35 134 1.6 8.0 0.00 0.00 0.00 43 1010.1
20260903213028 35 88 1.6 9.7 0.00 0.00 0.00 43 1011.1
20260903212628 35 136 0.0 3.2 0.00 0.00 0.00 45 1010.3
20260903211614 35 170 0.0 3.2 0.00 0.00 0.00 45 1010.4
20260903211524 35 171 1.6 4.8 0.00 0.00 0.00 44 1011.3
20260903210614 35 152 0.0 9.7 0.00 0.00 0.00 43 1010.5
20260903210035 35 136 1.6 12.9 0.00 0.00 0.00 45 1011.5
20260903205625 36 134 0.0 9.7 0.00 0.00 0.00 43 1010.6
20260903204524 36 140 1.6 8.0 0.00 0.00 0.00 40 1011.8
20260903203434 36 349 0.0 8.0 0.00 0.00 0.00 43 1011.0
20260903203012 36 129 1.6 11.3 0.00 0.00 0.00 43 1011.9
20260903202455 36 357 1.6 8.0 0.00 0.00 0.00 45 1011.2
20260903201536 35 183 4.8 9.7 0.00 0.00 0.00 45 1012.1
20260903201519 36 209 0.0 6.4 0.00 0.00 0.00 45 1011.3
20260903200458 35 175 1.6 9.7 0.00 0.00 0.00 45 1011.4
20260903200030 35 153 1.6 6.4 0.00 0.00 0.00 45 1012.2
20260903194533 36 67 1.6 4.8 0.00 0.00 0.00 46 1012.4
20260903194316 36 77 0.0 8.0 0.00 0.00 0.00 47 1011.5
20260903193029 35 171 1.6 11.3 0.00 0.00 0.00 47 1012.7
20260903192200 36 184 0.0 6.4 0.00 0.00 0.00 50 1011.9
20260903191503 36 333 1.6 6.4 0.00 0.00 0.00 50 1012.9
20260903191157 36 307 0.0 4.8 0.00 0.00 0.00 50 1012.1
20260903190148 36 94 0.0 8.0 0.00 0.00 0.00 50 1012.2
20260903190004 35 319 1.6 11.3 0.00 0.00 0.00 49 1013.1
20260903185128 35 106 1.6 8.0 0.00 0.00 0.00 49 1012.5
20260903184518 35 127 4.8 9.7 0.00 0.00 0.00 47 1013.5
20260903184110 35 39 0.0 6.4 0.00 0.00 0.00 47 1012.7
20260903183019 35 286 1.6 14.5 0.00 0.00 0.00 48 1013.7
20260903181940 35 293 0.0 11.3 0.00 0.00 0.00 49 1013.0
20260903181517 34 105 1.6 14.5 0.00 0.00 0.00 51 1014.0
20260903180918 35 147 0.0 11.3 0.00 0.00 0.00 50 1013.2
20260903180034 33 313 0.0 6.4 0.00 0.00 0.00 53 1014.1
20260903175908 34 99 0.0 3.2 0.00 0.00 0.00 54 1013.3
20260903174843 33 217 0.0 11.3 0.00 0.00 0.00 59 1013.4
20260903174509 32 191 3.2 14.5 0.00 0.00 0.00 57 1014.3
20260903173003 31 115 0.0 8.0 0.00 0.00 0.00 60 1014.6
20260903172635 32 195 0.0 8.0 0.00 0.00 0.00 59 1013.7
20260903171509 32 129 1.6 11.3 0.00 0.00 0.00 57 1014.9
20260903170447 31 122 0.0 8.0 0.00 0.00 0.00 62 1014.0
20260903170005 31 168 1.6 11.3 0.00 0.00 0.00 61 1015.0
20260903165509 31 323 1.6 8.0 0.00 0.00 0.00 66 1014.1
20260903164532 31 194 1.6 9.7 0.00 0.00 0.00 62 1015.0
20260903163308 31 114 0.0 6.4 0.00 0.00 0.00 64 1014.3
20260903163018 31 77 1.6 9.7 0.00 0.00 0.00 63 1015.1
20260903162330 31 117 0.0 6.4 0.00 0.00 0.00 64 1014.3
20260903161525 32 335 1.6 6.4 0.00 0.00 0.00 63 1015.1
20260903161331 32 0 0.0 9.7 0.00 0.00 0.00 63 1014.2
20260903160349 32 99 0.0 9.7 0.00 0.00 0.00 66 1014.2
20260903160014 31 337 3.2 12.9 0.00 0.00 0.00 66 1015.1
20260903155403 31 146 0.0 0.0 0.00 0.00 0.00 68 1014.2
20260903154513 31 159 1.6 12.9 0.00 0.00 0.00 66 1015.0
20260903154400 31 175 0.0 9.7 0.00 0.00 0.00 67 1014.2
20260903153008 30 165 1.6 6.4 0.00 0.00 0.00 68 1015.0
20260903152211 30 308 0.0 6.4 0.00 0.00 0.00 72 1014.2
20260903151507 30 75 0.0 4.8 0.00 0.00 0.00 74 1015.0
20260903151216 29 354 0.0 6.4 0.00 0.00 0.00 75 1014.2
20260903150144 28 192 0.0 6.4 0.00 0.00 0.00 75 1014.2
20260903150038 28 207 1.6 6.4 0.00 0.00 0.00 75 1015.0
20260903145206 28 132 0.0 3.2 0.00 0.00 0.00 74 1014.2
20260903144527 29 173 0.0 4.8 0.00 0.00 0.00 74 1015.0
20260903144219 30 95 0.0 3.2 0.00 0.00 0.00 74 1014.2
20260903143144 28 321 0.0 1.6 0.00 0.00 0.00 77 1014.3
20260903143036 28 186 0.0 3.2 0.00 0.00 0.00 76 1015.2
20260903142148 28 1 0.0 1.6 0.00 0.00 0.00 77 1014.4
20260903141525 28 99 3.2 9.7 0.00 0.00 0.00 77 1015.2
20260903141144 28 224 0.0 6.4 0.00 0.00 0.00 79 1014.4
20260903140208 28 207 0.0 3.2 0.00 0.00 0.00 81 1014.4
20260903140022 27 121 1.6 4.8 0.00 0.00 0.00 81 1015.2
20260903135215 26 135 0.0 6.4 0.00 0.00 0.00 83 1014.4
20260903134539 26 123 0.0 3.2 0.00 0.00 0.00 83 1015.2
20260903133114 26 109 0.0 0.0 0.00 0.00 0.00 84 1014.5
20260903133014 26 22 0.0 6.4 0.00 0.00 0.00 84 1015.2
20260903132050 26 1 0.0 9.7 0.00 0.00 0.00 84 1014.5
20260903131509 26 87 1.6 12.9 0.00 0.00 0.00 83 1015.2
20260903131058 26 359 0.0 3.2 0.00 0.00 0.00 84 1014.5
20260903130117 26 187 0.0 3.2 0.00 0.00 0.00 85 1014.4
20260903130006 26 298 1.6 4.8 0.00 0.00 0.00 84 1015.2
20260903125100 26 181 0.0 3.2 0.00 0.00 0.00 85 1014.3
20260903124527 25 69 0.0 3.2 0.00 0.00 0.00 84 1014.9
20260903123035 25 56 0.0 3.2 0.00 0.00 0.00 84 1014.9
20260903122958 26 51 0.0 0.0 0.00 0.00 0.00 85 1014.1
20260903121924 26 117 0.0 0.0 0.00 0.00 0.00 85 1014.0
20260903121529 26 136 0.0 6.4 0.00 0.00 0.00 84 1014.8
20260903120024 26 118 0.0 3.2 0.00 0.00 0.00 84 1014.7
20260903115746 26 92 0.0 1.6 0.00 0.00 0.00 85 1013.9
20260903114739 26 81 0.0 0.0 0.00 0.00 0.00 85 1013.9
20260903114519 25 32 0.0 3.2 0.00 0.00 0.00 85 1014.5
20260903113751 26 138 0.0 0.0 0.00 0.00 0.00 85 1013.7
20260903113021 25 173 0.0 4.8 0.00 0.00 0.00 85 1014.4
20260903112756 26 160 0.0 3.2 0.00 0.00 0.00 85 1013.7
20260903111756 26 188 0.0 0.0 0.00 0.00 0.00 85 1013.7
20260903111517 25 140 1.6 4.8 0.00 0.00 0.00 84 1014.2
20260903110820 26 115 0.0 0.0 0.00 0.00 0.00 85 1013.6
20260903110010 26 132 0.0 4.8 0.00 0.00 0.00 84 1014.3
20260903105817 26 139 0.0 3.2 0.00 0.00 0.00 85 1013.6
20260903104530 26 249 0.0 4.8 0.00 0.00 0.00 85 1014.3
20260903103028 26 140 1.6 4.8 0.00 0.00 0.00 84 1014.4
20260903102637 26 128 0.0 8.0 0.00 0.00 0.00 85 1013.6
20260903101626 26 172 0.0 0.0 0.00 0.00 0.00 84 1013.6
20260903101530 26 136 1.6 12.9 0.00 0.00 0.00 84 1014.3
20260903100559 26 79 0.0 12.9 0.00 0.00 0.00 85 1013.6
20260903100032 26 133 1.6 16.1 0.00 0.00 0.00 85 1014.3
20260903094533 26 113 1.6 6.4 0.00 0.00 0.00 85 1014.4
20260903093336 26 133 0.0 4.8 0.00 0.00 0.00 86 1013.6
20260903093040 26 182 1.6 6.4 0.00 0.00 0.00 85 1014.2
20260903092357 26 180 0.0 6.4 0.00 0.00 0.00 86 1013.6
20260903091519 26 103 1.6 9.7 0.00 0.00 0.00 85 1014.3
20260903091354 26 216 0.0 8.0 0.00 0.00 0.00 86 1013.6
20260903090410 26 121 0.0 8.0 0.00 0.00 0.00 86 1013.6
20260903090026 26 118 1.6 12.9 0.00 0.00 0.00 85 1014.3
20260903085430 26 169 0.0 6.4 0.00 0.00 0.00 85 1013.7
20260903084535 26 138 1.6 6.4 0.00 0.00 0.00 84 1014.4
20260903084427 26 117 0.0 3.2 0.00 0.00 0.00 85 1013.8
20260903083032 26 142 1.6 12.9 0.00 0.00 0.00 84 1014.5
20260903082243 26 172 0.0 3.2 0.00 0.00 0.00 84 1013.6
20260903081539 26 101 1.6 6.4 0.00 0.00 0.00 83 1014.4
20260903081217 26 141 0.0 0.0 0.00 0.00 0.00 83 1013.8
20260903080210 26 165 0.0 4.8 0.00 0.00 0.00 83 1013.9
20260903080031 26 161 1.6 4.8 0.00 0.00 0.00 82 1014.6
20260903075152 26 132 0.0 0.0 0.00 0.00 0.00 82 1013.9
20260903074526 26 159 0.0 6.4 0.00 0.00 0.00 81 1014.5
20260903073026 26 159 0.0 8.0 0.00 0.00 0.00 80 1014.6
20260903073016 26 157 0.0 1.6 0.00 0.00 0.00 81 1013.9
20260903071951 26 104 0.0 8.0 0.00 0.00 0.00 80 1013.8
20260903071523 26 138 1.6 6.4 0.00 0.00 0.00 80 1014.4
20260903070938 27 113 0.0 0.0 0.00 0.00 0.00 80 1013.8
20260903070021 26 149 0.0 11.3 0.00 0.00 0.00 79 1014.3
20260903065926 27 148 0.0 9.7 0.00 0.00 0.00 79 1013.7
20260903064922 27 122 0.0 9.7 0.00 0.00 0.00 79 1013.9
20260903064530 27 109 3.2 12.9 0.00 0.00 0.00 78 1014.7
20260903063852 27 111 0.0 6.4 0.00 0.00 0.00 78 1013.9
20260903063031 27 178 1.6 8.0 0.00 0.00 0.00 77 1014.5
20260903062913 27 79 0.0 6.4 0.00 0.00 0.00 78 1013.9
20260903061927 27 128 0.0 6.4 0.00 0.00 0.00 77 1013.9
20260903061512 27 118 3.2 11.3 0.00 0.00 0.00 76 1014.7
20260903060924 27 134 0.0 9.7 0.00 0.00 0.00 76 1014.0
20260903060017 27 118 3.2 12.9 0.00 0.00 0.00 74 1014.7
20260903054758 28 118 1.6 11.3 0.00 0.00 0.00 71 1014.0
20260903054509 28 96 1.6 16.1 0.00 0.00 0.00 70 1014.9
20260903053809 28 80 1.6 11.3 0.00 0.00 0.00 69 1014.0
20260903053004 28 194 3.2 11.3 0.00 0.00 0.00 67 1014.7
20260903052826 28 128 1.6 8.0 0.00 0.00 0.00 68 1014.1
20260903051831 28 143 0.0 8.0 0.00 0.00 0.00 67 1013.8
20260903051520 28 138 1.6 11.3 0.00 0.00 0.00 66 1014.4
20260903050818 29 156 1.6 9.7 0.00 0.00 0.00 66 1013.7
20260903050023 29 106 3.2 12.9 0.00 0.00 0.00 67 1014.2
20260903045753 29 39 0.0 11.3 0.00 0.00 0.00 68 1013.5
20260903044811 30 111 0.0 8.0 0.00 0.00 0.00 68 1013.4
20260903044518 29 169 0.0 14.5 0.00 0.00 0.00 68 1014.0
20260903043749 30 72 1.6 11.3 0.00 0.00 0.00 67 1013.3
20260903043017 30 173 3.2 14.5 0.00 0.00 0.00 66 1013.9
20260903042743 30 149 1.6 16.1 0.00 0.00 0.00 66 1013.3
20260903041749 30 143 1.6 16.1 0.00 0.00 0.00 65 1013.3
20260903041516 30 121 6.4 19.3 0.00 0.00 0.00 64 1013.9
20260903040718 30 137 1.6 11.3 0.00 0.00 0.00 64 1013.2
20260903040011 30 200 3.2 12.9 0.00 0.00 0.00 64 1013.9
20260903035728 31 205 1.6 11.3 0.00 0.00 0.00 64 1013.2
20260903034737 31 132 0.0 8.0 0.00 0.00 0.00 63 1013.1
20260903034511 30 163 0.0 9.7 0.00 0.00 0.00 62 1013.8
20260903033720 31 96 1.6 9.7 0.00 0.00 0.00 61 1012.9
20260903033005 31 130 3.2 12.9 0.00 0.00 0.00 59 1013.6
20260903032736 31 122 0.0 11.3 0.00 0.00 0.00 59 1012.8
20260903031713 31 130 1.6 11.3 0.00 0.00 0.00 57 1012.7
20260903031521 31 94 3.2 14.5 0.00 0.00 0.00 57 1013.4
20260903030730 29 185 0.0 8.0 0.00 0.00 0.00 59 1012.5
20260903030022 27 137 0.0 3.2 0.00 0.00 0.00 66 1013.0
20260903025738 27 135 0.0 0.0 0.00 0.00 0.00 66 1012.3
20260903024753 27 135 0.0 0.0 0.00 0.00 0.00 65 1012.1
20260903024524 27 137 0.0 0.0 0.00 0.00 0.00 64 1012.9
20260903023810 27 135 0.0 0.0 0.00 0.00 0.00 65 1012.0
20260903023025 27 137 0.0 0.0 0.00 0.00 0.00 65 1012.7
20260903022833 27 135 0.0 0.0 0.00 0.00 0.00 65 1011.9
20260903021523 27 137 0.0 0.0 0.00 0.00 0.00 63 1012.5
20260903020741 28 135 0.0 0.0 0.00 0.00 0.00 63 1011.7
20260903020010 28 137 0.0 0.0 0.00 0.00 0.00 62 1012.3
20260903015722 28 135 0.0 0.0 0.00 0.00 0.00 62 1011.5
20260903014718 28 135 0.0 0.0 0.00 0.00 0.00 60 1011.5
20260903014508 28 137 0.0 0.0 0.00 0.00 0.00 60 1012.2
20260903013009 29 137 0.0 0.0 0.00 0.00 0.00 58 1012.0
20260903012552 30 135 0.0 0.0 0.00 0.00 0.00 56 1011.3
20260903011525 30 137 0.0 0.0 0.00 0.00 0.00 58 1012.0
20260903010433 30 135 0.0 0.0 0.00 0.00 0.00 55 1011.1
20260903010024 30 137 0.0 0.0 0.00 0.00 0.00 54 1011.9
20260903005407 31 135 0.0 0.0 0.00 0.00 0.00 52 1011.2
20260903004533 32 137 0.0 0.0 0.00 0.00 0.00 47 1012.0
20260903004344 32 135 0.0 0.0 0.00 0.00 0.00 47 1011.2
20260903003323 33 135 0.0 0.0 0.00 0.00 0.00 45 1011.2
20260903003026 33 137 0.0 1.6 0.00 0.00 0.00 43 1012.0
20260903001521 33 97 0.0 3.2 0.00 0.00 0.00 43 1011.9
20260903001231 34 93 0.0 0.0 0.00 0.00 0.00 43 1011.2